Regional Weather Roundup
Issued by NWS Green Bay, WI

Home | Current Version | Previous Version | Graphics & Text | Print | Product List | Glossary Off
Versions: 1 2 3 4 5 6 7 8 9 10 11 12 13 14 15 16 17 18 19 20 21 22 23 24 25 26 27 28 29 30 31 32 33 34 35 36 37 38 39 40 41 42 43 44 45 46 47 48 49 50

000
ASUS43 KGRB 042211
RWRGRB

NORTH-CENTRAL AND NORTHEAST WISCONSIN REGIONAL WEATHER ROUNDUP
NATIONAL WEATHER SERVICE GREEN BAY WI
400 PM CST SUN DEC 04 2016

WIZ005-009-010>012-018-019-042300-
NORTH CENTRAL WISCONSIN

CITY           SKY/WX    TMP DP  RH WIND       PRES   REMARKS
IRONWOOD       LGT SNOW  31  28  89 S10       29.76F FOG
MANITOWISH WTR LGT SNOW  29  29 100 S8        29.76F
ARBOR VITAE    LGT SNOW  32  30  92 S8        29.77F
EAGLE RIVER    LGT SNOW  29  28  98 S3        29.78F
LAND O LAKES   LGT SNOW  29  28  93 S7        29.80F
RHINELANDER    LGT SNOW  30  28  92 S9        29.79F FOG
PHILLIPS       MIX PCPN  29  28  96 S8        29.76F
ANTIGO         LGT SNOW  28  28  98 SE9       29.82F VSB 1
TOMAHAWK       LGT SNOW  29  27  93 S3        29.79F
MERRILL        LGT SNOW  30  29  99 S3        29.82F
$$

WIZ013-073-042300-
NORTHEAST WISCONSIN

CITY           SKY/WX    TMP DP  RH WIND       PRES   REMARKS
IRON MOUNTAIN  LGT SNOW  30  26  85 SE6       29.84F VSB 1
MARINETTE      LGT SNOW  32  31  96 CALM      29.91F VSB 1
OCONTO         CLOUDY    31  31  98 CALM      29.90F VSB 1
$$

WIZ017-030-035>037-045-042300-
CENTRAL WISCONSIN

CITY           SKY/WX    TMP DP  RH WIND       PRES   REMARKS
MEDFORD        MIX PCPN  29  27  93 S13       29.78F
WAUSAU         LGT SNOW  29  28  96 S9        29.81F VSB 3/4
MOSINEE        LGT SNOW  28  28 100 SE8       29.83F VSB 1
MARSHFIELD     LGT SNOW  30  27  88 S10       29.80F FOG
WISC RAPIDS    LGT SNOW  31  30  96 S7        29.85F VSB 1
STEVENS POINT  MIX PCPN  28  28 100 S7        29.84F VSB 1
WAUPACA        LGT SNOW  33  31  94 CALM      29.87F VSB 1
SHAWANO        LGT RAIN  33  31  94 CALM      29.88F
CLINTONVILLE   LGT SNOW  32  30  93 S7        29.88F VSB 1
WAUTOMA        LGT SNOW  31  30  96 S9        29.87F VSB 1
$$

WIZ038-039-048-051-042300-
FOX VALLEY

CITY           SKY/WX    TMP DP  RH WIND       PRES   REMARKS
NWS GREEN BAY  SNOW      33  32  96 E3        29.89F VSB 1/2
APPLETON       LGT SNOW  30  30 100 S5        29.87F VSB 1
OSHKOSH        SNOW      31  29  92 S8        29.88F VSB 1/2
FOND DU LAC    SNOW      32  29  88 S5        29.89S VSB 1/2
$$

WIZ022-050-052-042300-
EAST CENTRAL WISCONSIN

CITY           SKY/WX    TMP DP  RH WIND       PRES   REMARKS
EPHRAIM        LGT SNOW  31  31 100 CALM      29.89F
WASHINGTON ISL LGT SNOW  31  31  99 CALM      29.90F VSB 3/4
STURGEON BAY   LGT SNOW  32  30  92 CALM      29.90F FOG
MANITOWOC      SNOW      33  31  92 CALM      29.91F VSB 1/2
SHEBOYGAN      SNOW      32  31  96 S5        29.89F VSB 1/2
$$

LMZ563-521-522-541>543-042300-
LAKESHORE

STATION/POSITION TIME  TEMP    WIND        PRES    VSBY  WAVE
                       AIR SEA DIR/SP/G                  HT/PER
                 (UTC) (F)     (DEG/KT/KT) (MB)    (MI)  (FT/S)
SHEBOYGAN LKSHOR 2200   35     190/ 16/ 18 1012.8F
KEWAUNEE LKSHORE 2142   32        CALM     1012.3F
ALGOMA MARINA    2151             CALM       N/A
NORTHPORT PIER   2140   32        CALM     1013.2F
SISTER BAY LKSHO 2153   32        CALM       N/A
MENOMINEE LKSHOR 2142   32     200/  2/  3 1011.9F
$$




USA.gov is the U.S. government's official web portal to all federal, state and local government web resources and services.